Orbital Elements at Epoch 2459000.5 (2020-May-31.0) TDB
Reference: JPL 21 (heliocentric ecliptic J2000)
Element | Value | Uncertainty (1-sigma) | Units |
e | .1876868291276804 | 5.4593e-08 | |
a | 2.240059993647907 | 9.5834e-09 | au |
q | 1.81963023638436 | 1.1964e-07 | au |
i | 4.641186951211027 | 5.0568e-06 | deg |
node | 220.9805943865428 | 4.9097e-05 | deg |
peri | 112.7611985394942 | 5.0958e-05 | deg |
M | 126.3708284330882 | 1.6804e-05 | deg |
tp | 2458570.634854005162 (2019-Mar-28.13485401) | 5.5579e-05 | TDB |
period | 1224.582084939648 3.35 | 7.8585e-06 2.152e-08 | d yr |
n | .2939778430759439 | 1.8865e-09 | deg/d |
Q | 2.660489750911455 | 1.1382e-08 | au |
|
| | Orbit Determination Parameters
Additional Information
|